Regional Weather Roundup
Issued by NWS

Home | Current Version | Previous Version | Graphics & Text | Print | Product List | Glossary On
Versions: 1 2 3 4 5 6 7 8 9 10 11 12 13 14 15 16 17 18 19 20 21 22 23 24 25 26 27 28 29 30 31 32 33 34 35 36 37 38 39 40 41 42 43 44 45 46 47 48 49 50
000
ASUS43 KFSD 211110
RWRSD

WEATHER ROUNDUP FOR SOUTH DAKOTA
NATIONAL WEATHER SERVICE SIOUX FALLS SD
500 AM CST TUE FEB 21 2017

NOTE: "FAIR" INDICATES FEW OR NO CLOUDS BELOW 12,000 FEET WITH NO
SIGNIFICANT WEATHER AND/OR OBSTRUCTIONS TO VISIBILITY.


SDZ001>005-009-010-012>017-211200-
NORTHWEST AND NORTH CENTRAL SOUTH DAKOTA

CITY           SKY/WX    TMP DP  RH WIND       PRES   REMARKS
BUFFALO          N/A     47  33  58 W15       29.66F
FAITH            N/A     42  33  70 W8        29.73S
MOBRIDGE       PTCLDY    37  29  72 SE10      29.68R
$$

SDZ012>016-024>037-041>051-057-063-072>074-211200-
SOUTHWEST AND SOUTH CENTRAL SOUTH DAKOTA

CITY           SKY/WX    TMP DP  RH WIND       PRES   REMARKS
RAPID CTY ARPT PTCLDY    50  30  46 S9        29.78S
PIERRE         PTCLDY    42  30  62 W9        29.73F
CUSTER         CLOUDY    43  29  57 W15G30    29.85S
ELLSWORTH AFB  CLOUDY    53  30  42 SW15G21   29.77R
PHILIP         CLEAR     53  32  44 W18       29.76S
PINE RIDGE     CLEAR     32  27  81 W3        29.87S
SPEARFISH      FAIR      52  30  43 SW24G38   29.75F
WINNER         FAIR      46  28  49 SW14      29.80S
$$

SDZ004>011-016>023-039-040-211200-
NORTHEAST SOUTH DAKOTA

CITY           SKY/WX    TMP DP  RH WIND       PRES   REMARKS
ABERDEEN       PTCLDY    34  31  88 S12       29.73F WCI  25
WATERTOWN      CLEAR     33  31  92 S9        29.79F WCI  25
BROOKINGS      CLEAR     35  34  96 S9        29.84S WCI  28
SISSETON         N/A     37  33  85 SE6       29.78S
$$

SDZ017-020-022-023-036>040-048>070-211200-
SOUTHEAST SOUTH DAKOTA

CITY           SKY/WX    TMP DP  RH WIND       PRES   REMARKS
SIOUX FALLS    CLEAR     35  34  96 SW3       29.89S
HURON          CLEAR     36  32  85 S10       29.78F
CHAMBERLAIN    CLEAR     45  32  61 SW9       29.78F
MITCHELL       CLEAR     38  31  76 S10       29.83S
YANKTON        CLEAR     36  34  93 S6        29.89S
$$

ABBREVIATIONS USED IN REMARKS
   TC - TEMPERATURE IN CELSIUS
  WCI - WIND CHILL INDEX
   HX - HEAT INDEX
  VSB - VISIBILITY





USA.gov is the U.S. government's official web portal to all federal, state and local government web resources and services.